Tracking 31027 objects as of 19-Jul-2025
HD Live streaming from Space Station
objects crossing your sky now

ANGOSAT 2

Track ANGOSAT 2 now!


NORAD ID: 54033
Int'l Code: 2022-131A
Perigee: 35,789.8 km
Apogee: 35,797.8 km
Inclination: 0.0 °
Period: 1,436.1 minutes
Semi major axis: 42164 km
RCS: Unknown
Launch date: October 12, 2022
Source: (AGO)
Launch site: TYURATAM MISSILE AND SPACE COMPLEX (TTMTR)
Your satellite tracking list
HAWK-4A
Track 1 satellite(s)




NASA's NSSDC Master Catalog

Two Line Element Set (TLE):
1 54033U 22131A   25199.56133822  .00000141  00000-0  00000-0 0  9996
2 54033   0.0283 162.0756 0000948 110.2739 249.3354  1.00271754 10122
Source of the keplerian elements: AFSPC